DW5522 Weather Reports


time (UTC)temp
F
wind
direction
speed
knots
gust
knots
rain 1hr
in
rain 24hr
in
rain mn
in
humidity
%
barometer
mb
20260506051303 48 28 2.6 4.3 0.04 0.51 0.51 95 1005.1
20260506051214 48 355 1.7 5.2 0.04 0.51 0.51 95 1005.1
20260506051211 48 355 1.7 5.2 0.04 0.57 0.57 93 4.8
20260506051004 48 11 1.7 3.5 0.04 0.51 0.51 95 1005.1
20260506050902 48 26 2.6 3.5 0.04 0.51 0.51 95 1005.1
20260506050802 48 43 2.6 3.5 0.04 0.51 0.51 95 1005.1
20260506050702 48 14 1.7 3.5 0.03 0.50 0.50 95 1005.1
20260506050603 48 349 2.6 3.5 0.03 0.50 0.50 95 1005.1
20260506050503 48 349 1.7 3.5 0.03 0.50 0.50 95 1005.1
20260506050215 48 351 1.7 2.6 0.03 0.50 0.50 95 1005.1
20260506050213 48 11 2.6 5.2 0.03 0.50 0.50 95 1005.1
20260506050211 48 11 1.7 4.3 0.04 0.57 0.57 94 4.8
20260506050203 48 351 1.7 2.6 0.03 0.50 0.50 95 1005.1
20260506045004 48 9 0.9 3.5 0.03 0.49 0.49 95 1005.1
20260506044902 48 337 2.6 3.5 0.03 0.49 0.49 95 1005.1
20260506044803 48 360 0.0 3.5 0.03 0.49 0.49 95 1005.1
20260506044603 48 5 1.7 4.3 0.04 0.49 0.49 95 1005.1
20260506044504 48 344 1.7 4.3 0.04 0.49 0.49 95 1005.1
20260506044403 48 355 2.6 4.3 0.03 0.48 0.48 95 1005.1
20260506044302 48 37 1.7 4.3 0.03 0.48 0.48 95 1005.1
20260506044211 48 355 2.6 4.3 0.04 0.55 0.55 94 4.9
20260506044103 48 346 1.7 3.5 0.03 0.48 0.48 95 1005.1
20260506043703 48 5 1.7 3.5 0.03 0.48 0.48 95 1005.1
20260506043603 48 17 1.7 2.6 0.04 0.48 0.48 95 1005.1
20260506043403 48 342 0.9 2.6 0.04 0.48 0.48 95 1005.1
20260506043302 48 339 2.6 2.6 0.04 0.48 0.48 95 1005.1
20260506043211 48 338 1.7 3.5 0.03 0.48 0.48 95 1005.1
20260506043203 48 338 1.7 3.5 0.03 0.48 0.48 95 1005.1
20260506043004 48 334 1.7 3.5 0.03 0.48 0.48 95 1005.1
20260506042903 48 333 2.6 3.5 0.03 0.48 0.48 95 1005.1
20260506042703 48 360 0.9 3.5 0.04 0.48 0.48 95 1005.1
20260506042506 48 5 1.7 3.5 0.04 0.48 0.48 95 1005.1
20260506042403 48 9 1.7 3.5 0.04 0.48 0.48 95 1005.1
20260506042211 48 31 1.7 3.5 0.04 0.48 0.48 95 1005.1
20260506042203 48 348 1.7 3.5 0.04 0.48 0.48 95 1005.1
20260506042104 48 350 0.9 3.5 0.04 0.48 0.48 95 1005.1
20260506042004 48 350 2.6 3.5 0.05 0.48 0.48 95 1005.1
20260506041903 48 351 2.6 3.5 0.05 0.48 0.48 95 1005.1
20260506041602 48 350 1.7 3.5 0.04 0.47 0.47 95 1005.1
20260506041505 48 350 2.6 3.5 0.04 0.47 0.47 95 1005.1
20260506041404 48 349 2.6 3.5 0.05 0.47 0.47 95 1005.1
20260506041302 48 339 1.7 3.5 0.05 0.47 0.47 95 1005.1
20260506041211 48 339 2.6 4.3 0.05 0.47 0.47 95 1005.1
20260506041203 48 335 2.6 3.5 0.05 0.47 0.47 95 1005.1
20260506041005 48 327 2.6 4.3 0.05 0.47 0.47 95 1005.1
20260506040902 48 339 1.7 4.3 0.05 0.47 0.47 95 1005.1
20260506040803 48 339 2.6 4.3 0.05 0.47 0.47 95 1005.1
20260506040703 48 339 3.5 4.3 0.05 0.47 0.47 95 1005.1
20260506040602 48 336 1.7 4.3 0.05 0.47 0.47 95 1005.2
20260506040505 48 315 1.7 4.3 0.05 0.47 0.47 95 1005.2
20260506040211 48 336 1.7 6.1 0.05 0.47 0.47 95 1005.1
20260506040005 48 355 4.3 6.1 0.05 0.46 0.46 95 1005.2
20260506035903 48 338 1.7 6.1 0.05 0.46 0.46 95 1005.1
20260506035802 48 351 2.6 5.2 0.05 0.46 0.46 95 1005.2
20260506035704 48 351 1.7 5.2 0.05 0.46 0.46 95 1005.2
20260506035603 48 344 3.5 5.2 0.05 0.46 0.46 95 1005.2
20260506035504 48 339 3.5 5.2 0.05 0.46 0.46 95 1005.2
20260506035402 48 346 1.7 5.2 0.05 0.46 0.46 95 1005.2
20260506035211 48 335 1.7 4.3 0.05 0.46 0.46 95 1005.2
20260506035202 48 335 2.6 2.6 0.05 0.46 0.46 95 1005.2
20260506035102 48 331 1.7 3.5 0.05 0.46 0.46 95 1005.1
20260506035003 48 327 1.7 3.5 0.05 0.46 0.46 95 1005.1
20260506034802 48 338 2.6 3.5 0.05 0.45 0.45 95 1005.1
20260506034702 48 338 0.9 3.5 0.05 0.45 0.45 95 1005.1
20260506034504 48 340 2.6 5.2 0.05 0.45 0.45 95 1005.2
20260506034405 48 338 0.9 5.2 0.05 0.45 0.45 95 1005.2
20260506034303 48 334 1.7 5.2 0.05 0.45 0.45 95 1005.2
20260506034211 48 341 2.6 5.2 0.05 0.45 0.45 95 1005.2
20260506034004 48 335 1.7 4.3 0.05 0.45 0.45 95 1005.2
20260506033903 48 317 2.6 4.3 0.05 0.45 0.45 95 1005.1
20260506033803 48 10 2.6 4.3 0.05 0.45 0.45 95 1005.2
20260506033603 48 335 1.7 7.0 0.05 0.45 0.45 95 1005.2
20260506033503 48 335 2.6 7.0 0.05 0.45 0.45 95 1005.2
20260506033303 48 328 3.5 7.0 0.05 0.45 0.45 95 1005.2
20260506033202 48 323 1.7 7.0 0.05 0.45 0.45 95 1005.2
20260506033006 48 325 1.7 4.3 0.05 0.45 0.45 95 1005.2
20260506032902 48 318 2.6 4.3 0.05 0.45 0.45 95 1005.2
20260506032802 48 17 2.6 4.3 0.05 0.45 0.45 95 1005.2
20260506032702 48 337 2.6 3.5 0.05 0.44 0.44 95 1005.2
20260506032603 48 348 0.9 3.5 0.05 0.44 0.44 95 1005.3
20260506032403 48 340 1.7 3.5 0.05 0.44 0.44 95 1005.3
20260506032305 48 37 1.7 4.3 0.05 0.44 0.44 95 1005.2
20260506032211 48 37 1.7 4.3 0.05 0.50 0.50 93 5.0
20260506032102 48 24 1.7 4.3 0.05 0.44 0.44 95 1005.2
20260506032004 48 28 1.7 4.3 0.04 0.43 0.43 95 1005.2
20260506031903 48 28 0.9 6.1 0.04 0.43 0.43 95 1005.3
20260506031803 48 355 1.7 6.1 0.04 0.43 0.43 95 1005.2
20260506031702 48 355 1.7 6.1 0.05 0.43 0.43 95 1005.3
20260506031505 48 15 1.7 6.1 0.05 0.43 0.43 95 1005.2
20260506031302 48 11 1.7 4.3 0.04 0.42 0.42 95 1005.3
20260506031211 48 355 2.6 6.1 0.05 0.47 0.47 93 5.0
20260506031003 48 24 0.0 6.1 0.04 0.42 0.42 95 1005.3
20260506030803 48 360 2.6 6.1 0.04 0.41 0.41 95 1005.3
20260506030504 48 333 2.6 5.2 0.04 0.41 0.41 95 1005.3
20260506030303 48 5 3.5 5.2 0.04 0.41 0.41 95 1005.4
20260506030211 48 5 2.6 5.2 0.04 0.41 0.41 95 1005.4
20260506030103 48 13 2.6 4.3 0.05 0.41 0.41 95 1005.4
20260506025903 48 360 2.6 4.3 0.05 0.41 0.41 95 1005.4
20260506025802 48 350 2.6 4.3 0.04 0.41 0.41 95 1005.4
20260506025603 48 22 2.6 7.0 0.04 0.41 0.41 95 1005.4
20260506025503 48 5 1.7 7.0 0.04 0.41 0.41 95 1005.5
20260506025305 48 5 2.6 7.0 0.04 0.41 0.41 95 1005.5
20260506025202 48 9 1.7 7.0 0.04 0.41 0.41 95 1005.5
20260506025103 48 17 2.6 7.0 0.05 0.41 0.41 95 1005.5
20260506024903 48 5 1.7 4.3 0.05 0.41 0.41 95 1005.5
20260506024803 48 34 2.6 4.3 0.05 0.41 0.41 95 1005.6
20260506024702 48 24 2.6 4.3 0.05 0.41 0.41 95 1005.5
20260506024603 48 355 1.7 4.3 0.05 0.41 0.41 95 1005.6
20260506024503 48 30 1.7 3.5 0.05 0.41 0.41 95 1005.5
20260506024403 48 11 1.7 2.6 0.05 0.41 0.41 95 1005.5
20260506024302 48 355 1.7 2.6 0.05 0.41 0.41 95 1005.6
20260506024210 48 355 1.7 2.6 0.05 0.41 0.41 95 1005.6
20260506024203 49 12 0.9 2.6 0.05 0.41 0.41 95 1005.5
20260506024103 48 360 0.9 3.5 0.05 0.41 0.41 95 1005.5
20260506024005 49 360 1.7 3.5 0.05 0.40 0.40 95 1005.5
20260506023904 48 360 1.7 3.5 0.05 0.40 0.40 95 1005.6
20260506023702 49 360 1.7 3.5 0.05 0.40 0.40 95 1005.6
20260506023602 49 323 1.7 3.5 0.05 0.40 0.40 95 1005.6
20260506023403 49 349 1.7 3.5 0.05 0.40 0.40 95 1005.6
20260506023210 49 337 1.7 3.5 0.05 0.40 0.40 95 1005.7
20260506023202 49 343 1.7 3.5 0.05 0.40 0.40 95 1005.6
20260506023103 49 19 1.7 3.5 0.05 0.40 0.40 95 1005.7
20260506023004 49 19 0.9 3.5 0.05 0.40 0.40 95 1005.7
20260506022902 49 19 1.7 3.5 0.05 0.40 0.40 95 1005.7
20260506022702 49 19 1.7 3.5 0.05 0.39 0.39 95 1005.7
20260506022506 49 18 1.7 4.3 0.05 0.39 0.39 95 1005.7
20260506022402 49 19 2.6 4.3 0.05 0.39 0.39 95 1005.7
20260506022305 49 25 2.6 4.3 0.05 0.39 0.39 95 1005.7
20260506022211 49 25 1.7 3.5 0.05 0.39 0.39 95 1005.7
20260506022203 49 28 0.9 4.3 0.05 0.39 0.39 95 1005.7
20260506022103 49 314 1.7 2.6 0.05 0.39 0.39 95 1005.8
20260506021803 49 314 1.7 2.6 0.06 0.39 0.39 95 1005.7
20260506021702 49 314 1.7 4.3 0.05 0.38 0.38 95 1005.7
20260506021602 49 314 2.6 4.3 0.05 0.38 0.38 95 1005.7
20260506021403 49 313 2.6 4.3 0.05 0.38 0.38 95 1005.8
20260506021304 49 313 1.7 4.3 0.05 0.38 0.38 95 1005.7
20260506021211 49 313 2.6 3.5 0.05 0.38 0.38 95 1005.7
20260506021103 49 316 1.7 3.5 0.06 0.38 0.38 95 1005.7
20260506020904 49 339 1.7 3.5 0.05 0.38 0.38 95 1005.7
20260506020703 49 347 1.7 2.6 0.05 0.38 0.38 95 1005.7
20260506020603 49 360 0.0 2.6 0.05 0.38 0.38 95 1005.7
20260506020402 49 346 1.7 2.6 0.06 0.38 0.38 95 1005.7
20260506020302 49 346 0.9 2.6 0.06 0.38 0.38 95 1005.8
20260506020212 49 346 1.7 2.6 0.06 0.42 0.42 93 5.5
20260506020210 49 346 1.7 2.6 0.06 0.38 0.38 95 1005.8
20260506020204 49 346 1.7 2.6 0.06 0.38 0.38 95 1005.8
20260506020005 49 346 1.7 3.5 0.05 0.37 0.37 95 1005.7
20260506015903 49 349 0.9 3.5 0.05 0.37 0.37 95 1005.8
20260506015702 49 43 1.7 4.3 0.06 0.37 0.37 95 1005.8
20260506015603 49 43 0.9 4.3 0.06 0.37 0.37 95 1005.7
20260506015503 49 360 1.7 4.3 0.06 0.37 0.37 95 1005.8
20260506015212 49 360 2.6 4.3 0.07 0.41 0.41 93 5.5
20260506015210 49 360 2.6 4.3 0.06 0.37 0.37 95 1005.8
20260506015202 49 5 1.7 4.3 0.07 0.37 0.37 95 1005.8
20260506015102 49 5 2.6 4.3 0.06 0.36 0.36 95 1005.7
20260506015003 49 5 1.7 4.3 0.06 0.36 0.36 95 1005.7
20260506014904 49 5 1.7 2.6 0.06 0.36 0.36 95 1005.8
20260506014702 49 5 1.7 6.1 0.07 0.36 0.36 95 1005.8
20260506014603 49 5 1.7 6.1 0.07 0.36 0.36 95 1005.7
20260506014503 49 5 2.6 6.1 0.07 0.36 0.36 95 1005.7
20260506014302 49 5 2.6 6.1 0.06 0.35 0.35 95 1005.8
20260506014212 49 5 3.5 6.1 0.08 0.40 0.40 93 5.5
20260506014203 49 24 1.7 5.2 0.07 0.35 0.35 95 1005.8
20260506013903 49 27 4.3 5.2 0.07 0.35 0.35 95 1005.8
20260506013803 49 44 1.7 5.2 0.07 0.35 0.35 95 1005.8
20260506013702 49 26 1.7 3.5 0.07 0.35 0.35 95 1005.8
20260506013603 49 27 1.7 3.5 0.07 0.35 0.35 95 1005.8
20260506013504 49 32 2.6 3.5 0.08 0.35 0.35 95 1005.8
20260506013404 49 36 1.7 3.5 0.07 0.35 0.35 95 1005.8
20260506013302 49 38 1.7 3.5 0.07 0.35 0.35 95 1005.8
20260506013212 49 38 1.7 3.5 0.08 0.40 0.40 93 5.6
20260506013210 49 38 1.7 3.5 0.07 0.35 0.35 95 1005.8
20260506013202 49 360 1.7 2.6 0.07 0.35 0.35 95 1005.9
20260506013103 49 360 1.7 3.5 0.07 0.35 0.35 95 1005.9
20260506013005 49 347 1.7 3.5 0.07 0.35 0.35 95 1005.9
20260506012903 49 346 1.7 3.5 0.07 0.35 0.35 95 1005.9
20260506012802 49 24 2.6 3.5 0.07 0.35 0.35 95 1005.9
20260506012703 49 24 1.7 3.5 0.06 0.34 0.34 95 1005.9
20260506012504 49 22 1.7 3.5 0.07 0.34 0.34 95 1005.9
20260506012403 49 27 0.9 3.5 0.07 0.34 0.34 95 1005.9
20260506012212 49 31 0.9 3.5 0.07 0.38 0.38 93 5.6
20260506012210 49 31 0.9 3.5 0.07 0.34 0.34 95 1005.8
20260506012203 49 31 1.7 3.5 0.07 0.34 0.34 95 1005.9
20260506012103 49 360 1.7 3.5 0.07 0.34 0.34 95 1005.9
20260506012004 49 355 2.6 3.5 0.06 0.33 0.33 95 1005.9
20260506011902 49 355 1.7 3.5 0.06 0.33 0.33 95 1005.9
20260506011802 49 24 0.9 2.6 0.06 0.33 0.33 95 1005.9
20260506011703 49 24 0.9 5.2 0.07 0.33 0.33 95 1005.9
20260506011602 49 24 1.7 5.2 0.07 0.33 0.33 95 1005.9
20260506011505 49 24 0.9 5.2 0.07 0.33 0.33 95 1005.9
20260506011302 49 45 1.7 5.2 0.07 0.33 0.33 95 1005.9
20260506011212 49 45 2.6 5.2 0.08 0.37 0.37 93 5.6
20260506011210 49 45 2.6 5.2 0.07 0.33 0.33 95 1005.9
20260506011103 49 31 1.7 5.2 0.06 0.32 0.32 95 1005.9
20260506010803 49 360 2.6 5.2 0.07 0.32 0.32 95 1005.9
20260506010703 49 25 3.5 5.2 0.07 0.32 0.32 95 1005.9
20260506010602 49 316 2.6 5.2 0.07 0.32 0.32 95 1005.9
20260506010505 49 329 1.7 3.5 0.07 0.32 0.32 95 1005.9
20260506010302 49 31 0.0 2.6 0.06 0.31 0.31 95 1005.9
20260506010210 49 31 1.7 2.6 0.06 0.31 0.31 95 1005.9
20260506010103 49 31 0.9 7.0 0.07 0.31 0.31 95 1005.9
20260506010005 49 35 1.7 7.0 0.07 0.31 0.31 95 1005.9
20260506005802 49 36 4.3 7.0 0.06 0.31 0.31 95 1006.0
20260506005702 49 25 3.5 5.2 0.06 0.31 0.31 95 1006.0
20260506005403 49 360 2.6 5.2 0.06 0.31 0.31 95 1006.0
20260506005305 49 355 1.7 5.2 0.06 0.31 0.31 95 1006.0
20260506005203 49 5 2.6 3.5 0.06 0.30 0.30 95 1006.1
20260506005103 49 360 0.9 4.3 0.06 0.30 0.30 95 1006.1
20260506005005 49 11 1.7 4.3 0.06 0.30 0.30 95 1006.1
20260506004902 49 10 1.7 4.3 0.06 0.30 0.30 95 1006.1
20260506004803 49 355 2.6 4.3 0.05 0.29 0.29 95 1006.1
20260506004604 49 11 2.6 4.3 0.05 0.29 0.29 95 1006.1
20260506004403 49 355 2.6 4.3 0.05 0.29 0.29 95 1006.1
20260506004303 49 19 1.7 4.3 0.06 0.29 0.29 95 1006.1
20260506004213 49 18 2.6 4.3 0.06 0.33 0.33 93 5.8
20260506004210 49 19 2.6 4.3 0.06 0.29 0.29 95 1006.1
20260506004203 49 24 1.7 3.5 0.05 0.28 0.28 95 1006.1
20260506004102 49 24 2.6 3.5 0.05 0.28 0.28 95 1006.2
20260506004002 49 26 1.7 3.5 0.05 0.28 0.28 95 1006.1
20260506003903 49 19 1.7 2.6 0.05 0.28 0.28 95 1006.1
20260506003803 49 19 0.9 2.6 0.06 0.28 0.28 95 1006.2
20260506003504 49 19 2.6 3.5 0.05 0.28 0.28 95 1006.2
20260506003404 49 19 1.7 3.5 0.05 0.28 0.28 95 1006.2
20260506003303 49 19 1.7 3.5 0.06 0.28 0.28 95 1006.2
20260506003203 49 19 2.6 3.5 0.06 0.28 0.28 95 1006.2
20260506003005 49 20 2.6 3.5 0.06 0.28 0.28 95 1006.2
20260506002902 49 19 1.7 3.5 0.06 0.28 0.28 95 1006.2
20260506002803 49 30 1.7 3.5 0.07 0.28 0.28 95 1006.2
20260506002703 49 28 1.7 3.5 0.07 0.28 0.28 95 1006.2
20260506002403 49 16 2.6 3.5 0.07 0.27 0.27 95 1006.3
20260506002306 49 5 2.6 5.2 0.07 0.27 0.27 95 1006.3
20260506002203 49 40 2.6 5.2 0.07 0.27 0.27 95 1006.3
20260506002004 49 360 3.5 5.2 0.08 0.27 0.27 95 1006.3
20260506001903 49 30 1.7 5.2 0.08 0.27 0.27 95 1006.3
20260506001802 49 23 3.5 5.2 0.08 0.27 0.27 95 1006.3
20260506001702 49 32 2.6 5.2 0.08 0.26 0.26 95 1006.3
20260506001504 49 30 1.7 5.2 0.08 0.26 0.26 95 1006.3
20260506001402 49 13 2.6 3.5 0.08 0.26 0.26 95 1006.3
20260506001302 49 46 2.6 3.5 0.08 0.26 0.26 95 1006.3
20260506001202 49 355 1.7 4.3 0.08 0.26 0.26 95 1006.4
20260506001102 49 5 1.7 4.3 0.08 0.26 0.26 95 1006.4
20260506000903 50 350 2.6 4.3 0.08 0.25 0.25 95 1006.4
20260506000702 50 350 1.7 4.3 0.08 0.25 0.25 95 1006.4
20260506000602 50 339 1.7 4.3 0.09 0.25 0.25 95 1006.4
20260506000503 50 338 2.6 4.3 0.09 0.25 0.25 95 1006.4
20260506000402 50 5 1.7 4.3 0.09 0.25 0.25 95 1006.4
20260506000213 50 13 1.7 4.3 0.12 0.29 0.29 93 6.2
20260506000211 50 13 1.7 4.3 0.10 0.25 0.25 95 1006.4
20260506000004 50 17 2.6 4.3 0.10 0.25 0.25 95 1006.4
20260505235903 50 18 1.7 5.2 0.11 0.25 0.25 95 1006.4
20260505235603 50 29 3.5 5.2 0.12 0.25 0.25 95 1006.5
20260505235504 50 31 1.7 5.2 0.12 0.25 0.25 95 1006.5
20260505235305 50 26 2.6 4.3 0.14 0.25 0.25 95 1006.5
20260505235213 49 26 2.6 4.3 0.16 0.28 0.28 93 6.2
20260505235211 50 26 2.6 4.3 0.13 0.25 0.25 95 1006.5
20260505235004 50 21 2.6 7.0 0.15 0.24 0.24 95 1006.5
20260505234803 50 16 3.5 7.0 0.15 0.24 0.24 95 1006.5
20260505234603 50 25 3.5 7.0 0.16 0.24 0.24 95 1006.6
20260505234504 50 360 2.6 6.1 0.16 0.24 0.24 95 1006.5
20260505234403 50 9 1.7 6.1 0.17 0.24 0.24 95 1006.6
20260505234302 50 19 3.5 6.1 0.16 0.23 0.23 95 1006.6
20260505234213 49 19 1.7 6.1 0.19 0.26 0.26 93 6.3
20260505234210 50 19 1.7 5.2 0.16 0.23 0.23 95 1006.6
20260505234203 50 22 3.5 6.1 0.16 0.23 0.23 95 1006.6
20260505234103 50 30 3.5 6.1 0.17 0.23 0.23 95 1006.6
20260505234003 50 13 2.6 8.7 0.17 0.23 0.23 95 1006.6
20260505233903 50 21 3.5 8.7 0.18 0.23 0.23 95 1006.6
20260505233802 50 32 3.5 8.7 0.17 0.22 0.22 95 1006.7
20260505233603 50 23 2.6 8.7 0.17 0.22 0.22 95 1006.6
20260505233504 50 32 0.9 6.1 0.17 0.22 0.22 95 1006.6
20260505233402 50 39 2.6 6.1 0.17 0.22 0.22 95 1006.6
20260505233302 50 41 2.6 6.1 0.17 0.21 0.21 95 1006.6
20260505233213 49 41 2.6 6.1 0.19 0.25 0.25 93 6.4
20260505233210 50 41 2.6 6.1 0.17 0.21 0.21 95 1006.6
20260505233004 50 26 4.3 5.2 0.17 0.21 0.21 95 1006.7
20260505232903 50 18 3.5 5.2 0.17 0.21 0.21 95 1006.7
20260505232802 50 15 2.6 4.3 0.16 0.21 0.21 95 1006.7
20260505232702 50 41 1.7 4.3 0.17 0.21 0.21 95 1006.7
20260505232603 50 42 2.6 4.3 0.17 0.21 0.21 95 1006.7
20260505232504 50 346 2.6 3.5 0.17 0.21 0.21 95 1006.7
20260505232403 50 37 1.7 3.5 0.16 0.20 0.20 95 1006.7
20260505232305 50 34 2.6 3.5 0.16 0.20 0.20 95 1006.7
20260505232213 49 34 1.7 3.5 0.19 0.23 0.23 93 6.4
20260505232210 50 34 1.7 3.5 0.16 0.20 0.20 95 1006.7
20260505232005 50 36 0.9 3.5 0.16 0.19 0.19 95 1006.7
20260505231904 50 26 0.9 3.5 0.16 0.19 0.19 95 1006.7
20260505231802 50 26 2.6 5.2 0.16 0.19 0.19 95 1006.7
20260505231703 50 28 1.7 5.2 0.16 0.18 0.18 95 1006.7
20260505231403 50 15 1.7 7.8 0.16 0.18 0.18 95 1006.7
20260505231303 50 32 3.5 7.8 0.15 0.18 0.18 95 1006.7
20260505231213 49 32 2.6 7.8 0.19 0.21 0.21 93 6.5
20260505231210 50 32 2.6 7.8 0.15 0.18 0.18 95 1006.7
20260505231102 50 21 2.6 7.8 0.16 0.18 0.18 95 1006.7
20260505231004 50 10 2.6 4.3 0.17 0.18 0.18 95 1006.7
20260505230903 50 30 2.6 7.0 0.16 0.17 0.17 95 1006.8
20260505230803 50 42 2.6 7.0 0.16 0.17 0.17 95 1006.7
20260505230702 50 5 0.9 7.0 0.16 0.17 0.17 95 1006.7
20260505230503 50 16 3.5 7.0 0.16 0.16 0.16 95 1006.8
20260505230402 50 27 1.7 7.0 0.16 0.16 0.16 95 1006.8
20260505230303 50 33 3.5 7.0 0.15 0.15 0.15 95 1006.7
20260505230213 49 22 3.5 7.0 0.16 0.16 0.16 93 6.5
20260505230210 50 35 1.7 7.0 0.15 0.15 0.15 95 1006.7
20260505230202 50 27 3.5 7.0 0.15 0.15 0.15 95 1006.7
20260505230006 50 33 4.3 7.0 0.15 0.15 0.15 95 1006.8
20260505225802 50 22 3.5 7.8 0.14 0.14 0.14 95 1006.8
20260505225702 50 42 4.3 7.8 0.13 0.13 0.13 95 1006.8
20260505225603 50 5 3.5 7.8 0.13 0.13 0.13 95 1006.8
20260505225504 50 32 1.7 7.8 0.12 0.12 0.12 95 1006.8
20260505225403 50 29 1.7 5.2 0.12 0.12 0.12 95 1006.8
20260505225305 50 23 0.0 3.5 0.11 0.11 0.11 95 1006.8
20260505225211 50 23 1.7 3.5 0.11 0.11 0.11 95 1006.8
20260505225202 50 23 0.9 3.5 0.11 0.11 0.11 95 1006.8
20260505225103 50 23 2.6 3.5 0.10 0.10 0.10 95 1006.8
20260505224903 50 23 1.7 6.1 0.09 0.09 0.09 95 1006.8
20260505224703 50 23 2.6 6.1 0.08 0.08 0.08 95 1006.8
20260505224603 50 22 2.6 6.1 0.08 0.08 0.08 95 1006.9
20260505224503 50 20 1.7 6.1 0.08 0.08 0.08 95 1006.9
20260505224403 50 20 2.6 4.3 0.07 0.07 0.07 95 1006.9
20260505224203 50 20 1.7 4.3 0.07 0.07 0.07 95 1006.9
20260505224102 50 20 2.6 4.3 0.06 0.06 0.06 95 1006.9
20260505224003 50 20 1.7 7.0 0.06 0.06 0.06 95 1006.9
20260505223904 50 15 1.7 7.0 0.05 0.05 0.05 95 1006.9
20260505223703 50 5 3.5 7.0 0.05 0.05 0.05 95 1006.8
20260505223602 50 50 0.9 7.0 0.05 0.05 0.05 95 1006.9
20260505223402 50 18 1.7 4.3 0.05 0.05 0.05 95 1006.8
20260505223303 50 18 2.6 4.3 0.05 0.05 0.05 95 1006.9
20260505223210 50 18 1.7 4.3 0.05 0.05 0.05 95 1006.9
20260505223202 50 26 2.6 4.3 0.05 0.05 0.05 95 1006.8
20260505223103 50 25 1.7 4.3 0.05 0.05 0.05 95 1006.8
20260505223005 50 26 1.7 3.5 0.05 0.05 0.05 95 1006.9
20260505222903 50 22 1.7 3.5 0.05 0.05 0.05 95 1006.9
20260505222803 50 29 3.5 3.5 0.05 0.05 0.05 95 1006.9
20260505222702 50 59 0.9 3.5 0.04 0.04 0.04 95 1006.9
20260505222603 50 34 0.9 7.0 0.04 0.04 0.04 95 1006.9
20260505222504 50 34 1.7 7.0 0.04 0.04 0.04 95 1006.9
20260505222403 50 34 1.7 7.8 0.04 0.04 0.04 95 1006.9
20260505222305 50 34 6.1 7.8 0.04 0.04 0.04 95 1006.9
20260505222211 50 34 2.6 7.8 0.04 0.04 0.04 95 1006.9
20260505222203 50 37 3.5 7.8 0.03 0.03 0.03 95 1006.9
20260505222102 50 350 5.2 7.8 0.03 0.03 0.03 95 1006.9
20260505222004 50 344 3.5 7.8 0.03 0.03 0.03 95 1006.9
20260505221903 50 37 2.6 7.0 0.03 0.03 0.03 95 1006.9
20260505221805 50 28 3.5 8.7 0.03 0.03 0.03 95 1006.9
20260505221706 50 34 1.7 8.7 0.02 0.02 0.02 95 1006.8
20260505221504 50 23 4.3 8.7 0.02 0.02 0.02 95 1006.9
20260505221404 50 5 3.5 8.7 0.02 0.02 0.02 95 1006.9
20260505221215 50 360 1.7 4.3 0.02 0.02 0.02 95 1006.9
20260505221210 50 25 3.5 7.0 0.02 0.02 0.02 93 6.6
20260505220813 50 22 2.6 6.1 0.01 0.01 0.01 95 1006.9
20260505220607 50 22 2.6 7.0 0.00 0.00 0.00 95 1006.9
20260505220210 50 14 3.5 7.8 0.00 0.00 0.00 93 6.7
20260505215913 50 35 0.9 6.1 0.04 0.07 0.07 95 1006.9
20260505215517 50 16 2.6 7.0 0.03 0.06 0.06 95 1007.0
20260505215211 50 26 1.7 7.0 0.03 0.06 0.06 95 1007.0
20260505214507 50 5 2.6 6.1 0.03 0.05 0.05 95 1007.0
20260505214307 50 5 3.5 6.1 0.03 0.05 0.05 95 1007.0
20260505214113 50 38 3.5 7.0 0.03 0.05 0.05 95 1007.1
20260505213712 50 22 2.6 9.6 0.02 0.05 0.05 95 1007.0
20260505213412 50 22 1.7 8.7 0.02 0.05 0.05 95 1007.1
20260505213304 50 44 2.6 8.7 0.02 0.05 0.05 95 1007.1
20260505213211 50 40 2.6 8.7 0.02 0.05 0.05 95 1007.1
20260505212603 50 32 2.6 6.1 0.02 0.05 0.05 95 1007.1
20260505212307 50 22 3.5 5.2 0.02 0.04 0.04 95 1007.1
20260505212211 50 48 3.5 4.3 0.02 0.04 0.04 95 1007.1
20260505212102 50 19 1.7 4.3 0.02 0.04 0.04 95 1007.1
20260505211802 50 28 0.9 4.3 0.02 0.04 0.04 94 1007.2
20260505211519 50 19 1.7 7.0 0.02 0.04 0.04 94 1007.2
20260505211317 50 22 3.5 7.0 0.02 0.04 0.04 94 1007.2
20260505211210 50 360 3.5 8.7 0.02 0.04 0.04 92 6.9
20260505211103 50 18 3.5 6.1 0.02 0.04 0.04 94 1007.1
20260505210803 50 39 0.0 7.0 0.02 0.04 0.04 94 1007.1
20260505210712 50 342 3.5 7.0 0.02 0.04 0.04 94 1007.2
20260505210211 50 23 2.6 7.0 0.01 0.03 0.03 94 1007.2
20260505205904 50 32 0.9 7.0 0.02 0.03 0.03 94 1007.3
20260505204606 50 32 2.6 7.0 0.01 0.02 0.02 94 1007.3
20260505204211 50 22 4.3 7.8 0.01 0.02 0.02 95 1007.3
20260505203604 50 24 0.0 4.3 0.01 0.02 0.02 94 1007.3
20260505203505 50 45 2.6 4.3 0.01 0.02 0.02 94 1007.3
20260505203210 50 38 2.6 6.1 0.01 0.02 0.02 92 7.0
20260505203109 50 27 0.0 6.1 0.01 0.02 0.02 94 1007.3
20260505202903 50 25 3.5 6.1 0.01 0.02 0.02 94 1007.3
20260505202807 50 25 2.6 6.1 0.01 0.02 0.02 94 1007.3
20260505202707 50 13 3.5 6.1 0.01 0.02 0.02 94 1007.3
20260505202217 50 355 2.6 5.2 0.01 0.02 0.02 94 1007.3
20260505202212 50 355 2.6 6.1 0.01 0.02 0.02 94 1007.3
20260505202210 50 355 2.6 4.3 0.01 0.02 0.02 94 1007.3
20260505202103 50 46 1.7 5.2 0.01 0.02 0.02 94 1007.3
20260505202033 50 11 3.5 5.2 0.01 0.02 0.02 94 1007.2
20260505201804 50 30 2.6 5.2 0.01 0.02 0.02 94 1007.3
20260505201702 50 28 0.9 5.2 0.01 0.02 0.02 94 1007.2
20260505201404 50 18 1.7 4.3 0.01 0.02 0.02 94 1007.2
20260505201303 50 29 3.5 5.2 0.01 0.02 0.02 94 1007.3
20260505201212 50 17 0.9 4.3 0.01 0.02 0.02 94 1007.2
20260505201210 50 17 1.7 4.3 0.01 0.02 0.02 92 7.0
20260505201005 50 49 2.6 5.2 0.01 0.02 0.02 94 1007.3
20260505200808 50 9 3.5 5.2 0.01 0.02 0.02 94 1007.2
20260505200508 50 18 2.6 6.1 0.01 0.02 0.02 94 1007.2
20260505200307 50 35 3.5 6.1 0.01 0.02 0.02 94 1007.2
20260505200212 50 32 2.6 6.1 0.01 0.02 0.02 94 1007.2
20260505200210 50 35 2.6 6.1 0.01 0.02 0.02 94 1007.2
20260505200018 50 34 3.5 6.1 0.00 0.02 0.02 94 1007.2
20260505195803 50 36 4.3 7.8 0.00 0.02 0.02 94 1007.2
20260505195708 50 17 0.0 7.8 0.00 0.02 0.02 94 1007.2
20260505195403 50 24 1.7 7.8 0.00 0.02 0.02 94 1007.2
20260505195212 50 30 2.6 7.0 0.00 0.02 0.02 94 1007.2
20260505195210 50 30 1.7 7.0 0.00 0.02 0.02 92 7.0
20260505195202 50 31 2.6 5.2 0.00 0.02 0.02 94 1007.2
20260505194703 50 42 1.7 5.2 0.00 0.02 0.02 94 1007.2
20260505194505 50 35 0.9 5.2 0.00 0.02 0.02 94 1007.2
20260505194303 50 18 2.6 6.1 0.00 0.02 0.02 94 1007.2
20260505194211 50 26 1.7 6.1 0.00 0.02 0.02 94 1007.2
20260505194103 50 26 2.6 6.1 0.00 0.02 0.02 94 1007.2
20260505193903 51 5 3.5 6.1 0.00 0.02 0.02 94 1007.2
20260505193704 50 28 2.6 4.3 0.00 0.02 0.02 94 1007.2
20260505193504 50 5 3.5 5.2 0.00 0.02 0.02 94 1007.2
20260505193304 51 5 1.7 7.0 0.00 0.02 0.02 94 1007.2
20260505193211 51 5 3.5 7.0 0.00 0.02 0.02 94 1007.2
20260505193103 51 15 2.6 7.0 0.00 0.02 0.02 94 1007.1
20260505192903 51 28 3.5 7.0 0.00 0.02 0.02 93 1007.2
20260505192703 51 18 2.6 7.0 0.00 0.02 0.02 93 1007.1
20260505192504 51 18 2.6 3.5 0.00 0.02 0.02 93 1007.1
20260505192305 51 340 1.7 2.6 0.00 0.02 0.02 93 1007.1
20260505192212 51 340 0.9 3.5 0.00 0.02 0.02 93 1007.2
20260505192210 50 340 0.9 4.3 0.00 0.02 0.02 91 6.9
20260505192103 51 37 0.0 3.5 0.00 0.02 0.02 93 1007.1
20260505191803 51 37 1.7 3.5 0.00 0.02 0.02 93 1007.1
20260505191603 51 24 2.6 2.6 0.00 0.02 0.02 93 1007.1
20260505191302 51 22 1.7 3.5 0.00 0.02 0.02 93 1007.1
20260505191212 51 22 1.7 5.2 0.00 0.02 0.02 93 1007.1
20260505191210 50 22 1.7 5.2 0.00 0.02 0.02 91 6.9
20260505191202 51 355 2.6 4.3 0.00 0.02 0.02 93 1007.1
20260505191004 51 34 3.5 5.2 0.00 0.02 0.02 93 1007.1
20260505190702 51 35 4.3 5.2 0.00 0.02 0.02 93 1007.1
20260505190503 51 5 2.6 6.1 0.00 0.02 0.02 93 1007.1
20260505190302 51 20 3.5 6.1 0.00 0.02 0.02 93 1007.1
20260505190212 51 21 2.6 6.1 0.00 0.02 0.02 93 1007.1
20260505190210 51 22 3.5 6.1 0.00 0.02 0.02 93 1007.1
20260505190203 51 19 2.6 6.1 0.00 0.02 0.02 93 1007.1
20260505190005 51 15 0.0 4.3 0.00 0.02 0.02 93 1007.0
20260505185903 51 22 2.6 4.3 0.00 0.02 0.02 93 1007.0
20260505185602 51 31 2.6 4.3 0.00 0.02 0.02 93 1007.1
20260505185402 51 32 1.7 4.3 0.00 0.02 0.02 93 1007.0
20260505185203 51 5 0.9 2.6 0.00 0.02 0.02 93 1007.0
20260505184902 51 5 0.9 3.5 0.00 0.02 0.02 93 1007.0
20260505184802 51 34 0.0 4.3 0.00 0.02 0.02 93 1007.0
20260505184604 51 32 2.6 7.0 0.00 0.02 0.02 93 1007.0
20260505184402 51 49 6.1 7.0 0.00 0.02 0.02 93 1007.0
20260505184212 51 351 3.5 7.8 0.00 0.02 0.02 93 1007.0
20260505184210 51 58 3.5 7.0 0.00 0.02 0.02 93 1007.0
20260505184202 51 58 0.9 7.0 0.00 0.02 0.02 93 1007.0
20260505184003 51 63 2.6 4.3 0.00 0.02 0.02 93 1007.1
20260505183903 51 17 2.6 4.3 0.00 0.02 0.02 93 1007.0
20260505183703 51 21 0.9 6.1 0.00 0.02 0.02 93 1007.0
20260505183504 51 26 2.6 6.1 0.00 0.02 0.02 93 1006.9
20260505183212 51 14 1.7 6.1 0.00 0.02 0.02 93 1007.0
20260505183210 51 40 3.5 6.1 0.00 0.02 0.02 93 1007.0
20260505183202 51 40 0.9 6.1 0.00 0.02 0.02 93 1007.1
20260505183005 51 19 4.3 6.1 0.00 0.02 0.02 93 1007.0
20260505182802 51 19 0.9 6.1 0.00 0.02 0.02 93 1007.0
20260505182702 51 51 4.3 6.1 0.00 0.02 0.02 93 1007.0
20260505182403 51 19 4.3 6.1 0.00 0.02 0.02 93 1007.1
20260505182203 51 5 1.7 6.1 0.00 0.02 0.02 93 1007.0
20260505182004 51 355 0.0 7.8 0.00 0.02 0.02 93 1007.0
20260505181904 51 22 3.5 7.8 0.00 0.02 0.02 93 1007.0
20260505181703 51 40 3.5 7.8 0.00 0.02 0.02 93 1007.1
20260505181504 51 59 3.5 7.8 0.00 0.02 0.02 93 1007.1
20260505181303 51 21 3.5 7.8 0.00 0.02 0.02 93 1007.1
20260505181212 51 21 1.7 7.8 0.00 0.02 0.02 93 1007.1
20260505181210 51 21 3.5 7.8 0.00 0.02 0.02 91 6.8
20260505181103 51 15 0.0 7.8 0.00 0.02 0.02 93 1007.1
20260505180903 51 22 1.7 7.8 0.00 0.02 0.02 93 1007.1
20260505180703 51 40 4.3 7.8 0.00 0.02 0.02 93 1007.1
20260505180504 51 14 7.0 7.8 0.00 0.02 0.02 93 1007.1
20260505180304 51 24 4.3 7.0 0.00 0.02 0.02 93 1007.1
20260505180212 51 24 2.6 7.0 0.00 0.02 0.02 93 1007.1
20260505180210 51 24 2.6 7.8 0.00 0.02 0.02 90 6.8
20260505175902 51 24 7.8 7.8 0.00 0.02 0.02 93 1007.1
20260505175702 51 9 7.0 7.8 0.00 0.02 0.02 93 1007.1
20260505175504 51 27 0.0 7.8 0.00 0.02 0.02 93 1007.2
20260505175403 51 360 2.6 7.0 0.00 0.02 0.02 93 1007.1
20260505175305 51 360 3.5 7.0 0.00 0.02 0.02 93 1007.1
20260505175212 51 39 4.3 7.8 0.00 0.02 0.02 93 1007.2
20260505175210 51 360 3.5 7.0 0.00 0.02 0.02 93 1007.1
20260505175104 51 42 3.5 7.0 0.00 0.02 0.02 92 1007.2
20260505174902 51 23 1.7 7.0 0.00 0.02 0.02 92 1007.1
20260505174802 51 9 0.0 4.3 0.00 0.02 0.02 92 1007.2
20260505174505 51 360 0.0 7.0 0.00 0.02 0.02 92 1007.2
20260505174302 51 360 0.9 7.0 0.00 0.02 0.02 92 1007.2
20260505174210 51 26 2.6 7.0 0.00 0.02 0.02 92 1007.2
20260505174102 51 24 3.5 7.0 0.00 0.02 0.02 92 1007.2
20260505173802 51 27 7.0 7.0 0.00 0.02 0.02 92 1007.3
20260505173603 51 17 3.5 7.0 0.00 0.02 0.02 92 1007.2
20260505173403 51 24 4.3 6.1 0.00 0.02 0.02 92 1007.3
20260505173212 51 24 2.6 7.0 0.00 0.02 0.02 92 1007.3
20260505173210 51 10 2.6 7.0 0.00 0.02 0.02 92 1007.3
20260505173203 51 10 3.5 7.0 0.00 0.02 0.02 92 1007.3
20260505172903 51 30 2.6 7.0 0.00 0.02 0.02 92 1007.3
20260505172603 51 34 2.6 4.3 0.00 0.02 0.02 92 1007.3
20260505172402 51 5 1.7 4.3 0.00 0.02 0.02 92 1007.2
20260505172210 51 5 2.6 4.3 0.00 0.02 0.02 90 7.0
20260505172202 51 5 2.6 4.3 0.00 0.02 0.02 92 1007.2
20260505172004 51 5 1.7 4.3 0.00 0.02 0.02 92 1007.2
20260505171802 51 355 1.7 3.5 0.00 0.02 0.02 92 1007.3
20260505171603 51 26 2.6 3.5 0.00 0.02 0.02 92 1007.3
20260505171403 51 19 1.7 5.2 0.00 0.02 0.02 92 1007.3
20260505171210 51 24 1.7 5.2 0.00 0.02 0.02 92 1007.3
20260505171203 51 34 1.7 6.1 0.00 0.02 0.02 92 1007.3
20260505171103 51 36 3.5 6.1 0.00 0.02 0.02 92 1007.4
20260505170804 51 39 2.6 6.1 0.00 0.02 0.02 92 1007.3
20260505170603 51 26 0.0 6.1 0.00 0.02 0.02 92 1007.4
20260505170302 51 26 3.5 6.1 0.00 0.02 0.02 92 1007.3
20260505170212 51 23 2.6 4.3 0.00 0.02 0.02 92 1007.3
20260505170210 51 5 4.3 4.3 0.00 0.02 0.02 92 1007.3
20260505170005 52 35 0.9 3.5 0.00 0.02 0.02 92 1007.4
20260505165803 52 349 0.0 3.5 0.00 0.02 0.02 92 1007.4
20260505165603 52 22 0.9 4.3 0.00 0.02 0.02 92 1007.4
20260505165205 52 13 0.9 3.5 0.00 0.02 0.02 92 1007.4
20260505165004 52 21 8.7 8.7 0.00 0.02 0.02 92 1007.3
20260505164703 52 34 3.5 8.7 0.00 0.02 0.02 92 1007.3
20260505164402 52 24 1.7 4.3 0.00 0.02 0.02 92 1007.3
20260505164202 52 9 2.6 7.0 0.00 0.02 0.02 92 1007.3
20260505164004 52 20 4.3 7.0 0.00 0.02 0.02 92 1007.3
20260505163903 52 26 4.3 7.0 0.00 0.02 0.02 92 1007.4
20260505163702 52 24 0.9 7.0 0.00 0.02 0.02 92 1007.4
20260505163503 52 26 3.5 7.0 0.00 0.02 0.02 92 1007.5
20260505163303 52 38 4.3 4.3 0.00 0.02 0.02 92 1007.4
20260505163210 52 19 4.3 7.8 0.00 0.02 0.02 89 7.1
20260505163104 52 13 2.6 7.8 0.00 0.02 0.02 92 1007.4
20260505162903 52 9 2.6 7.8 0.00 0.02 0.02 92 1007.5
20260505162402 52 21 2.6 9.6 0.00 0.02 0.02 92 1007.3
20260505162210 52 20 5.2 9.6 0.00 0.02 0.02 92 1007.3
20260505162203 52 20 6.1 9.6 0.00 0.02 0.02 92 1007.3
20260505162103 52 9 6.1 9.6 0.00 0.02 0.02 92 1007.3
20260505162004 52 9 3.5 4.3 0.00 0.02 0.02 92 1007.4
20260505161805 52 19 1.7 5.2 0.00 0.02 0.02 92 1007.3
20260505161703 52 324 2.6 5.2 0.00 0.02 0.02 91 1007.4
20260505161402 52 37 2.6 5.2 0.00 0.02 0.02 91 1007.4
20260505161210 52 44 1.7 5.2 0.00 0.02 0.02 89 7.0
20260505161203 52 23 1.7 7.0 0.00 0.02 0.02 91 1007.4
20260505161004 52 38 1.7 7.0 0.00 0.02 0.02 91 1007.3
20260505160903 52 360 1.7 7.0 0.00 0.02 0.02 91 1007.4
20260505160802 52 14 0.9 5.2 0.00 0.02 0.02 91 1007.4
20260505160504 52 30 0.9 5.2 0.00 0.02 0.02 92 1007.4
20260505160302 52 34 2.6 5.2 0.00 0.02 0.02 91 1007.5
20260505160210 52 34 1.7 7.0 0.00 0.02 0.02 91 1007.5
20260505160203 52 20 0.9 7.0 0.00 0.02 0.02 91 1007.4
20260505153303 53 42 5.2 8.7 0.00 0.02 0.02 91 1007.5
20260505153210 53 15 3.5 7.8 0.00 0.02 0.02 91 1007.5
20260505153104 53 15 0.0 7.8 0.00 0.02 0.02 91 1007.5
20260505152803 53 5 4.3 7.8 0.00 0.02 0.02 91 1007.5
20260505152702 53 336 4.3 7.8 0.00 0.02 0.02 91 1007.5
20260505152505 53 5 0.9 8.7 0.00 0.02 0.02 91 1007.6
20260505152304 53 20 1.7 8.7 0.00 0.02 0.02 91 1007.5
20260505152210 53 348 7.0 7.8 0.00 0.02 0.02 91 1007.5
20260505152103 53 42 5.2 8.7 0.00 0.02 0.02 91 1007.5
20260505151903 53 22 1.7 7.8 0.00 0.02 0.02 91 1007.5
20260505151702 53 5 2.6 7.8 0.00 0.02 0.02 91 1007.5
20260505151602 53 341 3.5 7.8 0.00 0.02 0.02 91 1007.5
20260505151402 53 49 0.9 7.8 0.00 0.02 0.02 91 1007.5
20260505151210 53 24 2.6 7.8 0.00 0.02 0.02 88 7.2
20260505151203 53 47 3.5 6.1 0.00 0.02 0.02 91 1007.6
20260505151004 53 348 4.3 7.0 0.00 0.02 0.02 91 1007.6
20260505150802 53 360 3.5 7.0 0.00 0.02 0.02 90 1007.6
20260505150604 53 30 3.5 7.0 0.00 0.02 0.02 90 1007.6
20260505150402 53 336 1.7 4.3 0.00 0.02 0.02 91 1007.7
20260505150210 53 355 5.2 9.6 0.00 0.02 0.02 88 7.3
20260505150203 53 34 0.0 7.0 0.00 0.02 0.02 90 1007.6
20260505140404 54 29 2.6 6.1 0.00 0.02 0.02 90 1007.7
20260505140104 54 25 0.0 6.1 0.00 0.02 0.02 91 1007.7
20260505130303 54 16 4.3 7.0 0.00 0.02 0.02 90 1008.2
20260505124803 54 38 3.5 9.6 0.00 0.02 0.02 90 1008.3
20260505124703 54 55 5.2 9.6 0.00 0.02 0.02 90 1008.3
20260505124505 54 27 0.0 9.6 0.00 0.02 0.02 90 1008.3
20260505124403 54 27 2.6 9.6 0.00 0.02 0.02 90 1008.3
20260505124303 54 27 4.3 9.6 0.00 0.02 0.02 90 1008.3
20260505124212 55 355 3.5 9.6 0.00 0.02 0.02 90 1008.2
20260505124210 54 27 2.6 9.6 0.00 0.02 0.02 90 1008.3
20260505124203 55 355 5.2 9.6 0.00 0.02 0.02 90 1008.2
20260505123903 55 9 0.9 7.8 0.00 0.02 0.02 90 1008.2
20260505123802 55 34 1.7 5.2 0.00 0.02 0.02 90 1008.3
20260505123703 55 60 2.6 5.2 0.00 0.02 0.02 90 1008.2
20260505123504 55 24 1.7 2.6 0.00 0.02 0.02 90 1008.3
20260505123402 55 22 0.9 2.6 0.00 0.02 0.02 90 1008.3
20260505123302 55 13 1.7 2.6 0.00 0.02 0.02 90 1008.3
20260505123212 55 13 1.7 6.1 0.00 0.02 0.02 90 1008.3
20260505123210 55 13 0.9 2.6 0.00 0.02 0.02 90 1008.3
20260505122903 55 22 1.7 1.7 0.00 0.02 0.02 90 1008.3
20260505122704 55 15 0.0 7.8 0.00 0.02 0.02 90 1008.4
20260505122504 55 15 4.3 7.8 0.00 0.02 0.02 90 1008.4
20260505122210 55 34 0.9 7.8 0.00 0.02 0.02 91 1008.4
20260505122003 55 13 4.3 7.8 0.00 0.02 0.02 91 1008.4
20260505121902 55 26 0.9 7.8 0.00 0.02 0.02 90 1008.4
20260505121703 55 19 2.6 6.1 0.00 0.02 0.02 91 1008.4
20260505121509 55 31 3.5 7.0 0.00 0.02 0.02 91 1008.4
20260505121214 55 38 2.6 8.7 0.00 0.02 0.02 90 1008.4
20260505121210 55 20 2.6 7.8 0.00 0.02 0.02 91 1008.4
20260505121202 55 38 2.6 8.7 0.00 0.02 0.02 90 1008.4
20260505121005 55 37 2.6 8.7 0.00 0.02 0.02 90 1008.4
20260505120903 55 38 3.5 8.7 0.00 0.02 0.02 91 1008.4
20260505120703 55 23 0.0 5.2 0.00 0.02 0.02 90 1008.4
20260505120504 55 22 1.7 7.8 0.00 0.02 0.02 91 1008.4
20260505120302 55 35 1.7 7.8 0.00 0.02 0.02 91 1008.4
20260505120214 55 53 0.9 7.0 0.00 0.02 0.02 90 1008.4
20260505120210 55 15 1.7 7.8 0.00 0.02 0.02 90 1008.4
20260505120202 55 15 1.7 7.8 0.00 0.02 0.02 90 1008.4
20260505120005 55 22 0.9 4.3 0.00 0.02 0.02 90 1008.4
20260505115902 55 30 2.6 8.7 0.00 0.02 0.02 90 1008.4
20260505115703 55 19 3.5 8.7 0.00 0.02 0.02 90 1008.4
20260505115504 55 40 0.9 8.7 0.00 0.02 0.02 90 1008.4
20260505115403 56 360 0.9 7.0 0.00 0.02 0.02 90 1008.4
20260505115214 56 360 2.6 9.6 0.00 0.02 0.02 90 1008.4
20260505115209 56 360 0.9 7.0 0.00 0.02 0.02 90 1008.4
20260505115202 56 9 0.9 9.6 0.00 0.02 0.02 90 1008.4
20260505114902 56 35 7.0 9.6 0.00 0.02 0.02 89 1008.5
20260505114702 56 18 0.9 9.6 0.00 0.02 0.02 90 1008.5
20260505114603 56 22 0.0 4.3 0.00 0.02 0.02 90 1008.5
20260505114210 56 19 0.9 3.5 0.00 0.02 0.02 90 1008.5
20260505114203 56 19 1.7 5.2 0.00 0.02 0.02 91 1008.5
20260505114104 56 38 1.7 5.2 0.00 0.02 0.02 90 1008.5
20260505114003 56 346 0.9 7.0 0.00 0.02 0.02 90 1008.5
20260505113802 56 355 2.6 7.0 0.00 0.02 0.02 90 1008.5
20260505113607 56 11 1.7 7.0 0.00 0.02 0.02 90 1008.4
20260505113402 56 15 0.0 2.6 0.00 0.02 0.02 90 1008.4
20260505113210 56 20 1.7 7.8 0.00 0.02 0.02 90 1008.5
20260505113203 56 9 0.9 7.0 0.00 0.02 0.02 90 1008.4
20260505113005 56 9 4.3 7.0 0.00 0.02 0.02 90 1008.4
20260505112902 56 9 4.3 8.7 0.00 0.02 0.02 90 1008.5
20260505112704 56 15 4.3 8.7 0.00 0.02 0.02 90 1008.4
20260505112504 56 47 0.0 8.7 0.00 0.02 0.02 91 1008.5
20260505112403 56 360 3.5 7.0 0.00 0.02 0.02 91 1008.4
20260505112216 56 12 2.6 9.6 0.00 0.02 0.02 91 1008.4
20260505112210 56 12 2.6 9.6 0.00 0.02 0.02 91 1008.4
20260505112203 56 28 2.6 8.7 0.00 0.02 0.02 91 1008.5
20260505112004 56 19 0.0 8.7 0.00 0.02 0.02 91 1008.5
20260505111902 56 22 5.2 8.7 0.00 0.02 0.02 91 1008.5
20260505111604 56 15 4.3 8.7 0.00 0.02 0.02 91 1008.5
20260505111504 56 32 5.2 8.7 0.00 0.02 0.02 91 1008.5
20260505111403 56 355 7.0 8.7 0.00 0.02 0.02 91 1008.5
20260505111216 56 46 5.2 8.7 0.00 0.02 0.02 91 1008.5
20260505111212 56 355 7.0 8.7 0.00 0.02 0.02 91 1008.5
20260505111210 56 355 5.2 8.7 0.00 0.02 0.02 91 1008.5
20260505111103 56 15 1.7 7.8 0.00 0.02 0.02 91 1008.5
20260505110903 56 11 4.3 5.2 0.00 0.02 0.02 91 1008.6
20260505110704 56 26 0.9 5.2 0.00 0.02 0.02 92 1008.5
20260505110503 55 47 7.0 7.0 0.00 0.02 0.02 92 1008.6
20260505110210 55 28 4.3 7.0 0.00 0.02 0.02 92 1008.6
20260505110203 55 28 3.5 7.0 0.00 0.02 0.02 92 1008.6
20260505102212 56 34 4.3 9.6 0.00 0.02 0.02 92 1008.6
20260505102210 56 344 4.3 9.6 0.00 0.02 0.02 92 1008.5
20260505102203 56 344 4.3 9.6 0.00 0.02 0.02 92 1008.5
20260505102103 56 13 7.0 9.6 0.00 0.02 0.02 92 1008.7
20260505101903 56 24 4.3 9.6 0.00 0.02 0.02 92 1008.5
20260505101505 56 32 0.0 7.8 0.00 0.02 0.02 92 1008.6
20260505101402 56 22 5.2 7.8 0.00 0.02 0.02 92 1008.6
20260505101302 56 22 2.6 7.8 0.00 0.02 0.02 92 1008.6
20260505101212 56 33 4.3 9.6 0.00 0.02 0.02 92 1008.6
20260505101210 56 22 5.2 9.6 0.00 0.02 0.02 92 1008.6
20260505101202 56 350 2.6 9.6 0.00 0.02 0.02 92 1008.7
20260505100904 56 18 7.8 9.6 0.00 0.02 0.02 92 1008.6
20260505100803 56 28 3.5 9.6 0.00 0.02 0.02 92 1008.6
20260505100702 56 28 2.6 7.0 0.00 0.02 0.02 92 1008.6
20260505100504 56 55 4.3 7.8 0.00 0.02 0.02 93 1008.7
20260505100403 56 30 7.0 7.8 0.00 0.02 0.02 93 1008.6
20260505100302 56 33 1.7 8.7 0.00 0.02 0.02 92 1008.7
20260505100211 56 24 5.2 8.7 0.00 0.01 0.01 89 8.3
20260505100209 56 33 3.5 8.7 0.00 0.02 0.02 92 1008.7
20260505100004 56 5 8.7 8.7 0.00 0.02 0.02 92 1008.6
20260505095802 56 40 1.7 8.7 0.00 0.02 0.02 92 1008.6
20260505095604 56 360 5.2 7.8 0.00 0.02 0.02 92 1008.7
20260505095403 56 22 3.5 7.0 0.00 0.02 0.02 92 1008.7
20260505095304 56 23 2.6 7.8 0.00 0.02 0.02 92 1008.7
20260505095104 56 24 0.0 7.8 0.00 0.02 0.02 91 1008.6
20260505095005 56 360 4.3 7.8 0.00 0.02 0.02 91 1008.7
20260505094803 56 13 1.7 7.8 0.00 0.02 0.02 91 1008.6
20260505094702 56 28 1.7 7.8 0.00 0.02 0.02 91 1008.7
20260505094505 56 20 0.0 7.0 0.00 0.02 0.02 91 1008.7
20260505094404 57 37 2.6 6.1 0.00 0.02 0.02 91 1008.8
20260505094211 57 40 0.9 7.0 0.00 0.01 0.01 88 8.5
20260505094203 57 37 3.5 6.1 0.00 0.02 0.02 91 1008.8
20260505094102 57 24 2.6 6.1 0.00 0.02 0.02 91 1008.8
20260505094006 57 24 2.6 5.2 0.00 0.02 0.02 91 1008.7
20260505093802 57 360 0.0 8.7 0.00 0.02 0.02 91 1008.8
20260505093703 57 360 1.7 8.7 0.00 0.02 0.02 91 1008.7
20260505093504 57 355 1.7 8.7 0.00 0.02 0.02 91 1008.7
20260505093403 57 355 1.7 8.7 0.00 0.02 0.02 91 1008.7
20260505093302 57 24 1.7 8.7 0.00 0.02 0.02 91 1008.7
20260505093212 57 24 4.3 8.7 0.00 0.02 0.02 91 1008.7
20260505093210 57 42 7.0 8.7 0.00 0.02 0.02 91 1008.7
20260505093102 57 36 0.0 8.7 0.00 0.02 0.02 91 1008.7
20260505092902 57 42 7.0 8.7 0.00 0.02 0.02 90 1008.8
20260505092702 57 42 6.1 8.7 0.00 0.02 0.02 90 1008.8
20260505092402 57 26 2.6 7.0 0.00 0.02 0.02 91 1008.8
20260505092305 57 17 3.5 7.0 0.00 0.02 0.02 90 1008.8
20260505092211 59 17 3.5 8.7 0.00 0.01 0.01 86 8.5
20260505092209 57 17 2.6 7.0 0.00 0.02 0.02 90 1008.8
20260505092104 58 21 0.0 7.0 0.00 0.02 0.02 90 1008.8
20260505092005 58 22 3.5 7.0 0.00 0.02 0.02 90 1008.7
20260505091802 58 54 4.3 7.0 0.00 0.02 0.02 90 1008.7
20260505091603 58 63 0.9 7.0 0.00 0.02 0.02 90 1008.7
20260505091405 58 53 1.7 7.0 0.00 0.02 0.02 89 1008.7
20260505091211 59 30 0.9 7.0 0.00 0.01 0.01 85 8.4
20260505091208 58 51 4.3 7.0 0.00 0.02 0.02 89 1008.7
20260505091203 58 51 4.3 7.0 0.00 0.02 0.02 89 1008.7
20260505090903 59 24 0.0 4.3 0.00 0.02 0.02 89 1008.7
20260505090703 59 22 0.9 4.3 0.00 0.02 0.02 89 1008.7
20260505090603 59 15 0.9 4.3 0.00 0.02 0.02 89 1008.7
20260505090402 59 15 1.7 4.3 0.00 0.02 0.02 89 1008.7
20260505090303 59 10 0.9 0.9 0.00 0.02 0.02 89 1008.7
20260505090211 60 37 1.7 2.6 0.00 0.01 0.01 86 8.4
20260505090005 59 9 0.9 3.5 0.00 0.02 0.02 89 1008.8
20260505085903 59 9 0.9 3.5 0.00 0.02 0.02 90 1008.8
20260505085703 59 5 1.7 3.5 0.00 0.02 0.02 89 1008.8
20260505085602 59 9 0.9 3.5 0.00 0.02 0.02 89 1008.7
20260505085212 59 9 1.7 3.5 0.00 0.01 0.01 86 8.4
20260505085210 59 9 0.9 3.5 0.00 0.02 0.02 89 1008.7
20260505085202 59 9 0.9 3.5 0.00 0.02 0.02 89 1008.7
20260505085006 59 5 0.0 7.0 0.00 0.02 0.02 89 1008.7
20260505084903 59 360 0.9 7.0 0.00 0.02 0.02 90 1008.7
20260505084603 59 5 2.6 7.0 0.00 0.02 0.02 90 1008.7
20260505084403 59 22 0.0 2.6 0.00 0.02 0.02 90 1008.7
20260505084216 59 23 1.7 3.5 0.00 0.01 0.01 88 8.4
20260505084211 58 20 0.0 3.5 0.00 0.02 0.02 90 1008.7
20260505084003 58 21 0.9 3.5 0.00 0.02 0.02 90 1008.7
20260505083903 58 21 0.9 3.5 0.00 0.02 0.02 90 1008.7
20260505083803 58 20 3.5 3.5 0.00 0.02 0.02 90 1008.7
20260505083603 58 13 0.0 3.5 0.00 0.02 0.02 90 1008.7
20260505083504 58 17 0.0 4.3 0.00 0.02 0.02 90 1008.7
20260505083202 58 26 2.6 4.3 0.00 0.02 0.02 89 1008.7
20260505083103 58 24 1.7 4.3 0.00 0.02 0.02 89 1008.7
20260505082905 59 10 3.5 4.3 0.00 0.02 0.02 89 1008.7
20260505082702 59 10 1.7 4.3 0.00 0.02 0.02 89 1008.7
20260505082504 59 24 0.0 4.3 0.00 0.02 0.02 89 1008.7
20260505082304 59 22 0.9 1.7 0.00 0.02 0.02 88 1008.7
20260505082212 59 17 1.7 2.6 0.00 0.02 0.02 88 1008.7
20260505082210 59 16 0.9 2.6 0.00 0.02 0.02 88 1008.7
20260505082102 59 16 0.9 3.5 0.00 0.02 0.02 89 1008.7
20260505082005 59 15 0.9 3.5 0.00 0.02 0.02 89 1008.7
20260505081903 59 15 0.9 3.5 0.00 0.02 0.02 90 1008.7
20260505081702 59 15 2.6 3.5 0.00 0.02 0.02 90 1008.7
20260505081504 59 33 2.6 3.5 0.00 0.02 0.02 90 1008.7
20260505081402 58 38 0.9 3.5 0.00 0.02 0.02 90 1008.7
20260505081212 59 51 0.9 1.7 0.00 0.02 0.02 90 1008.7
20260505081210 58 51 0.0 1.7 0.00 0.02 0.02 90 1008.7
20260505081104 58 51 0.0 1.7 0.00 0.02 0.02 89 1008.7
20260505081004 58 51 0.0 1.7 0.00 0.02 0.02 90 1008.7
20260505080903 58 51 0.9 1.7 0.00 0.02 0.02 90 1008.8
20260505080802 58 51 0.9 1.7 0.00 0.02 0.02 90 1008.8
20260505080703 58 51 0.9 1.7 0.00 0.02 0.02 91 1008.7
20260505080603 58 51 0.0 1.7 0.00 0.02 0.02 91 1008.8
20260505080403 58 45 0.0 1.7 0.00 0.02 0.02 90 1008.7
20260505080303 58 51 0.9 1.7 0.00 0.02 0.02 90 1008.7
20260505080203 58 51 0.9 1.7 0.00 0.02 0.02 90 1008.8
20260505075902 58 51 0.0 1.7 0.00 0.02 0.02 90 1008.8
20260505075704 58 51 1.7 1.7 0.00 0.02 0.02 91 1008.8
20260505075304 58 46 0.0 1.7 0.00 0.02 0.02 91 1008.9
20260505075211 58 46 0.0 2.6 0.00 0.01 0.01 90 8.5
20260505075209 58 46 0.0 1.7 0.00 0.02 0.02 91 1008.9
20260505075103 58 46 0.0 1.7 0.00 0.02 0.02 91 1008.9
20260505074903 58 46 0.0 0.9 0.00 0.02 0.02 91 1008.9
20260505074603 58 46 0.0 1.7 0.00 0.02 0.02 91 1008.9
20260505074504 58 46 0.9 1.7 0.00 0.02 0.02 92 1008.9
20260505074303 58 46 0.9 1.7 0.00 0.02 0.02 92 1008.9
20260505074211 58 46 0.0 1.7 0.00 0.02 0.02 92 1008.9
20260505074004 57 46 0.9 3.5 0.00 0.02 0.02 92 1008.9
20260505073903 57 46 1.7 3.5 0.00 0.02 0.02 92 1008.9
20260505073802 57 46 1.7 3.5 0.00 0.02 0.02 92 1008.9
20260505073602 57 46 1.7 2.6 0.00 0.02 0.02 92 1008.9
20260505073504 57 47 0.0 2.6 0.00 0.02 0.02 92 1008.9
20260505073403 57 47 0.9 1.7 0.00 0.02 0.02 92 1008.9
20260505073303 57 47 0.9 1.7 0.00 0.02 0.02 92 1008.9
20260505073211 57 47 0.9 1.7 0.00 0.01 0.01 92 8.6
20260505073004 57 47 1.7 1.7 0.00 0.02 0.02 92 1008.9
20260505072903 57 47 0.0 1.7 0.00 0.02 0.02 92 1008.9
20260505072702 57 47 0.0 1.7 0.00 0.02 0.02 92 1009.0
20260505072504 57 47 0.9 1.7 0.00 0.02 0.02 93 1009.0
20260505072404 57 47 0.0 1.7 0.00 0.02 0.02 93 1008.9
20260505072304 57 47 0.0 1.7 0.00 0.02 0.02 93 1008.9
20260505072202 57 47 0.0 1.7 0.00 0.02 0.02 93 1008.9
20260505072103 57 47 0.0 2.6 0.00 0.02 0.02 93 1008.8
20260505071902 57 47 0.9 2.6 0.00 0.02 0.02 93 1008.9
20260505071703 56 47 0.9 3.5 0.00 0.02 0.02 93 1008.8
20260505071504 56 48 0.0 3.5 0.00 0.02 0.02 93 1008.9
20260505071402 56 48 1.7 3.5 0.00 0.02 0.02 93 1008.9
20260505071213 56 59 0.0 2.6 0.00 0.02 0.02 93 1008.9
20260505071211 56 48 1.7 3.5 0.00 0.01 0.01 93 8.7
20260505071209 56 59 0.0 2.6 0.00 0.02 0.02 93 1008.9
20260505071203 56 59 0.9 2.6 0.00 0.02 0.02 93 1008.9
20260505071004 56 59 1.7 2.6 0.00 0.02 0.02 93 1008.9
20260505070903 56 61 0.9 2.6 0.00 0.02 0.02 93 1008.9
20260505070802 56 61 0.9 2.6 0.00 0.02 0.02 93 1008.9
20260505070703 56 167 0.9 0.9 0.00 0.02 0.02 93 1008.9
20260505070503 56 167 0.0 0.9 0.01 0.02 0.02 93 1008.9
20260505070403 56 167 0.9 0.9 0.01 0.02 0.02 93 1008.9
20260505070303 56 167 0.0 0.9 0.01 0.02 0.02 93 1008.8
20260505070202 56 167 0.9 0.9 0.01 0.02 0.02 93 1008.8
20260505070005 56 167 0.0 0.9 0.01 0.02 0.02 93 1008.9
20260505065902 56 167 0.0 0.9 0.01 0.02 0.02 93 1008.8
20260505065504 56 167 0.0 0.9 0.01 0.02 0.02 93 1008.9
20260505065403 56 167 0.0 0.9 0.01 0.02 0.02 94 1008.9
20260505065303 56 167 0.0 0.9 0.01 0.02 0.02 93 1009.0
20260505065212 56 167 0.0 0.9 0.01 0.02 0.02 93 1009.0
20260505065209 56 167 0.0 0.9 0.01 0.02 0.02 93 1009.0
20260505065203 56 167 0.0 0.9 0.01 0.02 0.02 93 1009.0
20260505065102 56 167 0.0 0.9 0.01 0.02 0.02 93 1008.9
20260505065004 56 167 0.0 0.9 0.01 0.02 0.02 93 1009.0
20260505064902 56 167 0.9 0.9 0.01 0.02 0.02 94 1009.0
20260505064702 56 167 0.0 2.6 0.01 0.02 0.02 94 1009.0
20260505064505 56 167 0.0 2.6 0.01 0.02 0.02 94 1009.0
20260505064402 56 167 0.0 2.6 0.01 0.02 0.02 94 1009.1
20260505064302 56 167 0.0 0.9 0.01 0.02 0.02 94 1009.0
20260505064213 56 167 0.0 0.9 0.01 0.02 0.02 94 1009.0
20260505064211 55 167 0.0 0.9 0.00 0.01 0.01 93 8.7
20260505064209 56 167 0.0 2.6 0.01 0.02 0.02 94 1009.0
20260505064203 56 167 0.9 0.9 0.01 0.02 0.02 94 1009.0
20260505064103 56 167 0.0 2.6 0.01 0.02 0.02 94 1009.0
20260505064004 56 167 0.9 2.6 0.01 0.02 0.02 94 1009.1
20260505063903 56 167 0.0 2.6 0.01 0.02 0.02 94 1009.1
20260505063802 56 167 1.7 2.6 0.01 0.02 0.02 94 1009.0
20260505063503 56 167 0.9 2.6 0.01 0.02 0.02 94 1009.1
20260505063402 55 167 0.0 0.9 0.01 0.02 0.02 94 1009.1
20260505063212 55 167 0.0 0.9 0.01 0.02 0.02 94 1009.1
20260505063210 55 167 0.0 0.9 0.01 0.02 0.02 94 1009.1
20260505063202 55 167 0.0 0.9 0.01 0.02 0.02 94 1009.1
20260505062904 55 167 0.0 0.9 0.01 0.02 0.02 94 1009.1
20260505062603 55 167 0.0 0.9 0.01 0.02 0.02 94 1009.2
20260505062403 55 167 0.0 0.9 0.01 0.02 0.02 94 1009.2
20260505062304 55 167 0.0 0.9 0.01 0.02 0.02 94 1009.2
20260505062202 55 167 0.0 0.9 0.01 0.02 0.02 94 1009.2
20260505062004 55 167 0.0 0.9 0.01 0.02 0.02 94 1009.2
20260505061703 55 167 0.0 0.9 0.01 0.02 0.02 94 1009.2
20260505061603 55 167 0.0 0.9 0.01 0.02 0.02 94 1009.2
20260505061504 55 167 0.0 0.9 0.01 0.02 0.02 94 1009.2
20260505061404 55 167 0.0 0.9 0.01 0.02 0.02 94 1009.2
20260505061212 55 167 0.0 0.9 0.01 0.02 0.02 94 1009.2
20260505061209 55 167 0.0 0.9 0.01 0.02 0.02 94 1009.2
20260505061203 55 167 0.9 0.9 0.01 0.02 0.02 94 1009.2
20260505061103 55 167 0.9 2.6 0.01 0.02 0.02 94 1009.2
20260505060803 55 167 0.0 2.6 0.01 0.02 0.02 94 1009.2
20260505060702 55 167 0.9 2.6 0.01 0.02 0.02 94 1009.2
20260505060403 55 167 0.0 2.6 0.00 0.01 0.01 94 1009.2
20260505060303 55 167 0.9 2.6 0.00 0.01 0.01 94 1009.3
20260505060211 55 167 0.0 2.6 0.00 0.01 0.01 95 1009.2
20260505060104 55 167 0.0 2.6 0.00 0.01 0.01 95 1009.3
20260505060005 55 167 0.9 2.6 0.00 0.01 0.01 95 1009.3
20260505055904 55 167 0.9 2.6 0.00 0.01 0.01 95 1009.2
20260505055802 55 167 0.0 0.9 0.00 0.01 0.01 95 1009.2
20260505055603 55 167 0.0 0.9 0.00 0.01 0.01 94 1009.2
20260505055304 55 167 0.0 0.9 0.00 0.01 0.01 95 1009.2
20260505055212 55 167 0.0 0.9 0.00 0.01 0.01 95 1009.2
20260505055210 55 167 0.0 0.9 0.00 0.01 0.01 95 1009.3
20260505055203 55 167 0.0 0.9 0.00 0.01 0.01 95 1009.2
20260505055006 55 167 0.9 0.9 0.00 0.01 0.01 95 1009.2